"Time","Temp","Dewpoint","Humidity","Pressure","Direction","Speed","Gust","Precip","PrecipRate"
"00:04:57","60","52.3","75.7","29.68","279","0","0","0.00","0.00"
"00:09:59","60","52.4","76.1","29.68","279","0","0","0.00","0.00"
"00:14:57","59.9","52.3","75.9","29.68","279","0","0","0.00","0.00"
"00:19:56","59.8","51.9","75","29.68","279","0","0","0.00","0.00"
"00:24:56","59.7","51.8","75","29.68","279","0","0","0.00","0.00"
"00:29:59","59.5","51.6","75","29.68","279","0","0","0.00","0.00"
"00:34:58","59.2","51.4","75.2","29.68","279","0","0","0.00","0.00"
"00:39:58","59","51.4","76","29.68","279","0","0","0.00","0.00"
"00:44:57","58.9","51","75","29.68","279","0","0","0.00","0.00"
"00:49:56","58.7","50.8","74.8","29.67","279","0","0","0.00","0.00"
"00:54:56","58.6","50.7","75","29.67","279","0","0","0.00","0.00"
"00:59:59","58.4","50.5","75","29.67","279","0","0","0.00","0.00"
"01:04:59","58.2","50.3","74.8","29.67","279","0","0","0.00","0.00"
"01:09:59","58","50","74.5","29.67","279","0","0","0.00","0.00"
"01:14:59","57.9","49.7","74","29.67","279","0","0","0.00","0.00"
"01:19:58","57.7","49.7","74.6","29.67","279","0","0","0.00","0.00"
"01:24:58","57.5","49.6","75","29.67","279","0","0","0.00","0.00"
"01:29:57","57.3","49.7","75.9","29.67","279","0","0","0.00","0.00"
"01:34:56","57","49.8","76.7","29.66","279","0","0","0.00","0.00"
"01:39:56","56.9","49.4","76","29.66","279","0","0","0.00","0.00"
"01:44:59","56.7","49.5","77","29.66","279","0","0","0.00","0.00"
"01:49:59","56.4","49.3","77","29.66","279","0","0","0.00","0.00"
"01:54:58","56.4","49.2","76.6","29.66","279","0.1","2.4","0.00","0.00"
"01:59:58","56.6","49.2","76.3","29.67","279","0","0","0.00","0.00"
"02:04:58","56.7","48.6","74.4","29.67","279","0.2","2.4","0.00","0.00"
"02:09:57","56.9","48.4","73.1","29.67","279","0.2","1.2","0.00","0.00"
"02:14:57","57.1","48.5","72.8","29.67","279","0.4","2.4","0.00","0.00"
"02:19:57","57.3","48.7","73","29.67","279","0","0","0.00","0.00"
"02:24:56","57.3","48.3","72","29.67","279","0","0","0.00","0.00"
"02:29:59","57.2","48.3","72.1","29.67","279","0.1","1.2","0.00","0.00"
"02:34:58","57.1","48.5","73","29.67","279","0","1.2","0.00","0.00"
"02:39:58","56.9","48.3","73","29.67","279","0.1","1.2","0.00","0.00"
"02:44:57","56.7","48.4","73.7","29.67","279","0","0","0.00","0.00"
"02:49:58","56.4","48.2","74","29.66","279","0","0","0.00","0.00"
"02:54:56","56.1","48.3","75","29.66","279","0","0","0.00","0.00"
"02:59:57","55.8","48","75","29.66","279","0","0","0.00","0.00"
"03:04:55","55.5","48","75.8","29.66","279","0","0","0.00","0.00"
"03:09:59","55.1","48","76.8","29.66","279","0","1.2","0.00","0.00"
"03:14:59","54.9","48.1","77.9","29.66","279","0.1","1.2","0.00","0.00"
"03:19:59","54.6","47.9","78","29.66","279","0.1","1.2","0.00","0.00"
"03:24:58","54.4","47.8","78.2","29.66","279","0.1","2.4","0.00","0.00"
"03:29:57","54.1","47.5","78.2","29.67","279","0.1","1.2","0.00","0.00"
"03:34:56","53.9","47.4","78.6","29.67","279","0","0","0.00","0.00"
"03:39:56","53.7","47.3","79","29.67","279","0.2","2.4","0.00","0.00"
"03:44:56","53.5","47","78.8","29.67","279","0.4","2.4","0.00","0.00"
"03:49:58","53.4","46.9","78.8","29.67","280","0.5","2.4","0.00","0.00"
"03:54:57","53.3","47","79","29.67","280","0.4","2.4","0.00","0.00"
"03:59:57","53.2","46.5","78","29.67","283","0.6","3.6","0.00","0.00"
"04:04:56","53.3","46.3","77.1","29.67","286","0.3","2.3","0.00","0.00"
"04:09:59","53.5","46.1","76","29.67","286","0.4","2.4","0.00","0.00"
"04:14:59","53.6","46.1","75.6","29.68","286","0.2","2.4","0.00","0.00"
"04:19:59","53.7","46","75.1","29.68","286","0.1","2.4","0.00","0.00"
"04:24:58","53.9","45.8","74","29.68","286","0.6","3.6","0.00","0.00"
"04:29:57","54.2","46","73.8","29.68","286","0.3","2.4","0.00","0.00"
"04:34:56","54.3","45.9","73.3","29.68","286","0","2.3","0.00","0.00"
"04:39:56","54.3","45.8","73","29.68","286","0.5","3.6","0.00","0.00"
"04:44:59","54.2","46","73.6","29.68","286","0.1","1.2","0.00","0.00"
"04:49:59","54.1","45.6","73","29.68","286","0.1","1.2","0.00","0.00"
"04:54:58","54","45.5","73","29.68","286","0.1","3.6","0.00","0.00"
"04:59:57","53.8","45.6","73.7","29.69","286","0.2","3.5","0.00","0.00"
"05:04:57","53.7","45.6","74","29.69","286","0.1","1.2","0.00","0.00"
"05:09:57","53.5","45.6","74.5","29.69","286","0","1.2","0.00","0.00"
"05:14:57","53.4","45.7","75.1","29.69","286","0.1","1.2","0.00","0.00"
"05:19:56","53.2","45.7","75.6","29.69","286","0","0","0.00","0.00"
"05:24:59","53","45.4","75.1","29.69","286","0","1.2","0.00","0.00"
"05:29:58","52.9","45.5","76","29.70","286","0","1.2","0.00","0.00"
"05:34:58","52.7","45.3","76","29.70","286","0","1.2","0.00","0.00"
"05:39:58","52.6","45.4","76.7","29.70","286","0","0","0.00","0.00"
"05:44:57","52.4","45.4","77","29.70","286","0","0","0.00","0.00"
"05:49:56","52.2","45.2","77","29.70","286","0","0","0.00","0.00"
"05:54:56","52","45.3","77.8","29.70","286","0","0","0.00","0.00"
"05:59:55","51.8","45.2","78","29.70","286","0","0","0.00","0.00"
"06:04:56","51.7","45.1","78","29.70","286","0","1.2","0.00","0.00"
"06:09:57","51.5","45.1","78.5","29.70","286","0","0","0.00","0.00"
"06:14:57","51.4","45.2","79.3","29.71","286","0.1","1.2","0.00","0.00"
"06:19:56","51.3","45.1","79.2","29.71","286","0","1.2","0.00","0.00"
"06:24:58","51.3","45.1","79.5","29.71","286","0","1.2","0.00","0.00"
"06:29:59","51.3","45.3","80","29.72","286","0","0","0.00","0.00"
"06:34:58","51.4","45.2","79.3","29.72","286","0","0","0.00","0.00"
"06:39:57","51.5","45.3","79.4","29.72","286","0","1.2","0.00","0.00"
"06:44:56","51.6","45.6","80","29.72","286","0.1","1.2","0.00","0.00"
"06:49:59","51.7","45.5","79.3","29.72","286","0","1.2","0.00","0.00"
"06:54:58","51.9","45.6","79","29.72","286","0","0","0.00","0.00"
"06:59:56","52","45.7","79","29.72","286","0","1.2","0.00","0.00"
"07:04:56","52.1","45.9","79.3","29.72","286","0.1","1.2","0.00","0.00"
"07:09:56","52.4","45.9","78.4","29.72","286","0.2","2.4","0.00","0.00"
"07:14:59","52.7","45.9","77.6","29.73","286","0.3","2.4","0.00","0.00"
"07:19:58","53","46.1","77.2","29.73","286","0","1.2","0.00","0.00"
"07:24:57","53.3","45.9","76","29.73","286","0","0","0.00","0.00"
"07:29:59","53.6","46.1","75.7","29.73","289","1","3.6","0.00","0.00"
"07:34:58","53.9","46.2","75","29.73","290","0.3","2.3","0.00","0.00"
"07:39:57","54.1","46.5","75.4","29.73","290","0","0","0.00","0.00"
"07:44:55","54.4","47.1","76.5","29.73","275","0.3","2.4","0.00","0.00"
"07:49:58","54.6","47.1","75.7","29.73","275","0.1","1.2","0.00","0.00"
"07:54:57","54.9","47.5","76.2","29.73","275","0","1.2","0.00","0.00"
"07:59:56","55.2","47.6","75.7","29.73","275","0.2","1.2","0.00","0.00"
"08:04:59","55.5","47.7","75.2","29.73","275","0.3","1.2","0.00","0.00"
"08:09:59","55.9","48","74.8","29.73","275","0.4","2.4","0.00","0.00"
"08:14:58","56.4","48.1","73.8","29.74","275","0.2","1.2","0.00","0.00"
"08:19:57","56.8","48.4","73.5","29.74","275","0.3","2.4","0.00","0.00"
"08:24:59","57.3","48.9","73.6","29.74","275","0.6","2.4","0.00","0.00"
"08:29:57","57.7","48.7","71.8","29.75","275","0.4","2.4","0.00","0.00"
"08:34:58","58.3","49.2","71.8","29.75","275","0.2","1.2","0.00","0.00"
"08:39:57","58.9","49","69.9","29.75","275","0.2","2.4","0.00","0.00"
"08:44:59","59.6","49.1","68.2","29.75","275","0.7","2.4","0.00","0.00"
"08:49:58","60.3","49","66.3","29.75","275","0.6","2.4","0.00","0.00"
"08:54:56","60.9","49.1","65.1","29.75","339","1.5","6","0.00","0.00"
"08:59:58","61.3","49.2","64.5","29.75","349","2","4.8","0.00","0.00"
"09:04:58","61.6","49.1","63.3","29.75","338","1","4.8","0.00","0.00"
"09:09:57","62.1","48.9","62","29.75","345","2.4","8.4","0.00","0.00"
"09:14:56","62.5","48.6","60.3","29.75","339","1.9","4.8","0.00","0.00"
"09:19:58","63","48.6","59.3","29.75","348","2.2","8.4","0.00","0.00"
"09:24:56","63.5","48.5","58","29.75","342","2.6","8.1","0.00","0.00"
"09:29:58","63.9","48.3","56.8","29.75","339","2.6","8.4","0.00","0.00"
"09:34:56","64.2","48","55.6","29.75","346","3","8.4","0.00","0.00"
"09:39:59","64.6","48","54.8","29.75","340","1.7","7.2","0.00","0.00"
"09:44:57","65.1","48.3","54.6","29.75","330","2.4","6.9","0.00","0.00"
"09:49:59","65.4","47.7","52.7","29.74","329","1.4","4.8","0.00","0.00"
"09:54:57","65.8","48","52.7","29.74","326","1.7","4.8","0.00","0.00"
"09:59:59","66.3","49","53.7","29.74","351","0.7","3.6","0.00","0.00"
"10:04:59","66.8","47.6","50.1","29.74","6","1.4","6","0.00","0.00"
"10:09:58","67.2","48","50.2","29.74","345","1","4.8","0.00","0.00"
"10:14:57","67.7","48.1","49.7","29.74","333","1.1","6","0.00","0.00"
"10:19:59","68.1","48.3","49.1","29.74","333","0.9","4.8","0.00","0.00"
"10:24:57","68.4","47","46.4","29.74","338","3.8","8.4","0.00","0.00"
"10:29:59","68.3","46.6","45.9","29.74","339","3.6","9.6","0.00","0.00"
"10:34:57","68.3","46.8","46.2","29.74","350","3.1","8.4","0.00","0.00"
"10:39:58","68.5","47.1","46.4","29.74","343","2.7","8.4","0.00","0.00"
"10:44:56","68.9","47.7","46.7","29.74","356","2.2","7.2","0.00","0.00"
"10:49:59","69.2","47.1","45.3","29.74","344","2.4","7.2","0.00","0.00"
"10:54:57","69.5","48.1","46.5","29.74","347","1.5","4.8","0.00","0.00"
"10:59:56","69.8","48","45.7","29.74","348","0.9","4.8","0.00","0.00"
"11:04:59","70.1","48.3","45.8","29.74","342","1.9","4.8","0.00","0.00"
"11:09:58","70.6","49.4","47.1","29.74","340","0.9","4.8","0.00","0.00"
"11:14:57","71.2","48.8","45.1","29.74","343","2.5","7.2","0.00","0.00"
"11:19:59","70.5","47.2","43.6","29.74","337","2.4","7.2","0.00","0.00"
"11:24:58","70.8","48.4","45","29.74","327","2","6","0.00","0.00"
"11:29:56","71.3","48.6","44.6","29.74","332","3.1","6","0.00","0.00"
"11:34:58","72","49.5","45.1","29.74","349","3.2","8.4","0.00","0.00"
"11:39:57","72.2","49","43.9","29.74","350","2.5","6","0.00","0.00"
"11:44:56","71.9","47.7","42.2","29.74","345","4.7","10.8","0.00","0.00"
"11:49:58","71.9","49.8","45.6","29.74","32","1.6","6.9","0.00","0.00"
"11:54:57","72.8","50.7","45.9","29.74","350","0.9","2.4","0.00","0.00"
"11:59:59","73.6","50.4","44.2","29.74","346","1.4","4.8","0.00","0.00"
"12:04:59","73.1","48.1","41.2","29.74","331","3.1","10.8","0.00","0.00"
"12:09:59","72.7","48","41.5","29.74","342","3.9","9.6","0.00","0.00"
"12:14:58","72.8","48.5","42.3","29.74","335","1.9","4.8","0.00","0.00"
"12:19:57","72.8","47.2","40.2","29.73","345","3.4","8.4","0.00","0.00"
"12:24:59","73.2","47.5","40.2","29.73","345","3.6","12","0.00","0.00"
"12:29:58","73","47.2","40","29.73","351","4","13.2","0.00","0.00"
"12:34:57","72.9","47.5","40.5","29.73","353","3.2","13.2","0.00","0.00"
"12:39:56","73.1","46.4","38.6","29.73","339","4.4","12.7","0.00","0.00"
"12:44:58","73.2","45.9","37.8","29.73","308","4.2","8.4","0.00","0.00"
"12:49:57","73.5","45.4","36.7","29.72","300","3.4","13.2","0.00","0.00"
"12:54:55","73.6","42.6","32.9","29.72","326","5.6","16.1","0.00","0.00"
"12:59:58","73.7","44.3","35.1","29.72","337","3.2","12","0.00","0.00"
"13:04:58","73.3","43.4","34.2","29.71","327","5","15","0.00","0.00"
"13:09:57","73.9","45.7","36.7","29.71","334","3.9","10.8","0.00","0.00"
"13:14:57","75","47.8","38.1","29.71","26","1.8","9.6","0.00","0.00"
"13:19:59","75.6","46","35","29.70","342","3.8","16.1","0.00","0.00"
"13:24:58","75.1","45.1","34.4","29.70","322","4.1","12","0.00","0.00"
"13:29:57","75.6","45.6","34.5","29.70","329","3","6","0.00","0.00"
"13:34:59","75.1","44.8","34","29.70","340","5.9","19.6","0.00","0.00"
"13:39:59","74.8","43.5","32.6","29.70","332","4.7","15","0.00","0.00"
"13:44:57","74.5","43.6","33.1","29.70","351","5.6","13.2","0.00","0.00"
"13:49:58","75.1","45.4","34.8","29.70","345","5.5","12.7","0.00","0.00"
"13:54:56","75.2","46.4","36.1","29.70","357","2","11.5","0.00","0.00"
"13:59:59","75.7","46.6","35.8","29.70","348","3.8","12","0.00","0.00"
"14:04:58","75.2","46.1","35.6","29.70","333","5.5","15","0.00","0.00"
"14:09:58","74.9","46.4","36.5","29.70","308","4.3","10.8","0.00","0.00"
"14:14:57","75.1","46.8","36.8","29.70","356","2.4","13.2","0.00","0.00"
"14:19:56","75.3","47.8","37.9","29.70","5","3.4","11.5","0.00","0.00"
"14:24:59","75.3","47","36.7","29.70","347","4.8","16.1","0.00","0.00"
"14:29:57","75.4","46.8","36.3","29.70","334","5.4","15","0.00","0.00"
"14:34:56","75.1","45.8","35.4","29.70","327","5","15","0.00","0.00"
"14:39:56","75.5","47.4","37","29.70","3","3.3","7.2","0.00","0.00"
"14:44:58","75.4","46.3","35.6","29.70","296","3.5","12","0.00","0.00"
"14:49:57","75.3","46.9","36.6","29.70","328","3","12","0.00","0.00"
"14:54:56","75.9","47.9","37.2","29.70","262","3.1","15","0.00","0.00"
"14:59:59","76.4","47.5","36.2","29.70","313","3","10.4","0.00","0.00"
"15:04:59","76.4","44.2","31.8","29.70","336","3.5","8.4","0.00","0.00"
"15:09:58","76.3","45.4","33.5","29.70","295","3.5","10.8","0.00","0.00"
"15:14:57","76.1","45.3","33.6","29.70","331","4.1","12","0.00","0.00"
"15:19:56","76.3","47.2","35.8","29.70","339","1.8","6","0.00","0.00"
"15:24:59","76.4","47.1","35.5","29.70","345","3.6","10.8","0.00","0.00"
"15:29:57","76.2","45.4","33.6","29.70","295","3.8","10.8","0.00","0.00"
"15:34:57","75.5","45.2","34.1","29.70","271","1.5","3.6","0.00","0.00"
"15:39:57","75.7","46.5","35.7","29.70","220","0.9","3.6","0.00","0.00"
"15:44:56","76.1","45.6","33.9","29.70","234","0.8","2.4","0.00","0.00"
"15:49:59","75.9","47.4","36.7","29.70","338","2.6","7.2","0.00","0.00"
"15:54:58","76.2","47.2","35.9","29.70","342","2.8","8.4","0.00","0.00"
"15:59:56","76.4","46","34.1","29.70","329","3.1","8.4","0.00","0.00"
"16:04:56","76.4","45.7","33.7","29.70","345","4.1","12","0.00","0.00"
"16:09:56","76.8","44.9","32.3","29.70","350","2.2","8.1","0.00","0.00"
"16:14:59","77.2","44.8","31.8","29.70","1","2.4","7.2","0.00","0.00"
"16:19:58","77.3","45.3","32.2","29.70","342","2","7.2","0.00","0.00"
"16:24:57","77.1","44.7","31.7","29.70","241","2","6","0.00","0.00"
"16:29:59","76.8","43.4","30.4","29.70","282","3.6","8.4","0.00","0.00"
"16:34:58","76.7","42.9","30","29.70","329","2.8","8.4","0.00","0.00"
"16:39:58","76.8","44.4","31.6","29.70","325","2.2","7.2","0.00","0.00"
"16:44:56","77","44","30.9","29.70","335","3.5","8.4","0.00","0.00"
"16:49:59","76.3","44.8","32.7","29.70","335","3.8","8.4","0.00","0.00"
"16:54:58","76.4","45.5","33.4","29.70","337","3.6","10.8","0.00","0.00"
"16:59:57","75.7","44.4","32.9","29.70","287","2.8","6.9","0.00","0.00"
"17:04:57","75.2","45","34.2","29.70","338","2.2","5.8","0.00","0.00"
"17:09:56","75.7","43.6","31.9","29.70","301","2.3","6","0.00","0.00"
"17:14:59","75.3","45.1","34.1","29.70","335","4.2","12","0.00","0.00"
"17:19:58","74.7","45","34.7","29.70","347","3","12","0.00","0.00"
"17:24:57","74.9","46.1","36","29.70","327","2.4","9.6","0.00","0.00"
"17:29:59","75.6","45.8","34.8","29.70","301","2.7","8.4","0.00","0.00"
"17:34:58","75.9","47.2","36.3","29.70","6","1.5","4.8","0.00","0.00"
"17:39:57","75.7","47.1","36.4","29.70","353","1.7","4.8","0.00","0.00"
"17:44:56","75.2","45.4","34.7","29.70","338","1.8","4.8","0.00","0.00"
"17:49:59","74.5","45.6","35.8","29.70","328","1","4.8","0.00","0.00"
"17:54:57","74","45.9","36.7","29.70","333","2.4","6","0.00","0.00"
"17:59:59","73.8","47","38.5","29.71","343","2.8","8.4","0.00","0.00"
"18:04:59","73.6","46.5","38.2","29.71","340","2.5","6","0.00","0.00"
"18:09:58","73.4","46.6","38.5","29.71","342","1.8","9.6","0.00","0.00"
"18:14:58","73.3","46.6","38.7","29.71","299","1.5","9.2","0.00","0.00"
"18:19:57","73.3","47.6","40.1","29.71","304","1","3.6","0.00","0.00"
"18:24:56","73.3","47.6","40.2","29.71","342","1.7","6","0.00","0.00"
"18:29:58","73.3","47","39.3","29.71","317","1.7","7.2","0.00","0.00"
"18:34:57","73.3","47.3","39.8","29.71","351","0.9","3.6","0.00","0.00"
"18:39:56","73.3","47.4","39.8","29.71","16","1.6","6","0.00","0.00"
"18:44:59","73.2","47.1","39.5","29.72","341","1.5","5.8","0.00","0.00"
"18:49:58","73.2","47.2","39.7","29.72","345","1.7","4.8","0.00","0.00"
"18:54:57","73.1","47.4","40.1","29.72","346","2.2","4.8","0.00","0.00"
"18:59:59","72.9","46.8","39.5","29.72","342","3.7","13.2","0.00","0.00"
"19:04:59","72.6","46.4","39.2","29.72","336","4.8","15","0.00","0.00"
"19:09:58","72.3","44.8","37.3","29.72","341","6.3","19.6","0.00","0.00"
"19:14:57","71.8","43.9","36.7","29.73","353","6.6","16.1","0.00","0.00"
"19:19:56","71.5","43.6","36.7","29.73","342","3.1","8.4","0.00","0.00"
"19:24:59","71.2","43.3","36.5","29.73","336","3","6.9","0.00","0.00"
"19:29:58","71","43.4","37","29.73","354","1","4.8","0.00","0.00"
"19:34:57","70.8","43.5","37.4","29.73","338","3","12","0.00","0.00"
"19:39:56","70.6","43.5","37.6","29.73","330","1.3","6","0.00","0.00"
"19:44:59","70.5","43.6","38","29.74","345","2.3","6","0.00","0.00"
"19:49:58","70.3","43.8","38.3","29.74","352","1.7","6","0.00","0.00"
"19:54:56","70.1","44.2","39.2","29.74","354","1.3","3.6","0.00","0.00"
"19:59:59","69.9","44","39.3","29.74","355","0.5","2.4","0.00","0.00"
"20:04:59","69.7","44.4","40.2","29.74","355","0.4","2.4","0.00","0.00"
"20:09:58","69.4","43.7","39.5","29.74","345","1.6","3.6","0.00","0.00"
"20:14:58","69.3","43.5","39.4","29.75","333","2.1","8.4","0.00","0.00"
"20:19:57","69.2","43.7","39.8","29.75","344","2.2","8.4","0.00","0.00"
"20:24:56","69","44.1","40.7","29.75","340","2.3","7.2","0.00","0.00"
"20:29:56","68.9","44.3","41.2","29.75","348","1.9","7.2","0.00","0.00"
"20:34:59","68.7","44.2","41.2","29.75","355","1.2","5.8","0.00","0.00"
"20:39:59","68.6","43.9","41","29.75","346","0.8","6","0.00","0.00"
"20:44:59","68.5","45.3","43.3","29.76","338","0.3","2.4","0.00","0.00"
"20:49:58","68.3","45.3","43.8","29.76","337","0.2","3.6","0.00","0.00"
"20:54:57","67.9","45.1","43.8","29.76","336","0.9","3.5","0.00","0.00"
"20:59:56","67.8","45.3","44.3","29.76","340","1.9","6","0.00","0.00"
"21:04:56","67.7","45.3","44.4","29.76","327","0.8","2.4","0.00","0.00"
"21:09:56","67.6","45.5","45","29.76","327","0.5","3.6","0.00","0.00"
"21:14:57","67.5","45.7","45.6","29.76","328","0.6","3.6","0.00","0.00"
"21:19:58","67.3","46.1","46.5","29.76","327","0.9","6","0.00","0.00"
"21:24:59","67.2","46.1","46.8","29.76","325","1.8","5.8","0.00","0.00"
"21:29:58","67.1","46.5","47.5","29.77","352","1.1","6","0.00","0.00"
"21:34:58","67.1","46.6","47.8","29.77","352","0.9","3.6","0.00","0.00"
"21:39:57","66.9","46.9","48.7","29.77","351","0.4","3.6","0.00","0.00"
"21:44:57","66.7","47.1","49.3","29.78","351","1","3.6","0.00","0.00"
"21:49:56","66.5","47.2","49.7","29.78","349","1.2","4.8","0.00","0.00"
"21:54:59","66.4","47.2","50","29.78","345","1","3.6","0.00","0.00"
"21:59:58","66.3","47.4","50.6","29.78","345","0.9","3.6","0.00","0.00"
"22:04:59","66.1","47.5","51.2","29.78","353","1","6","0.00","0.00"
"22:09:58","65.9","47.6","51.5","29.78","355","0.7","3.6","0.00","0.00"
"22:14:58","65.7","47.6","52","29.79","355","0.2","3.5","0.00","0.00"
"22:19:58","65.6","47.5","52","29.79","354","0","2.4","0.00","0.00"
"22:24:57","65.4","47.7","52.6","29.79","353","0.9","3.6","0.00","0.00"
"22:29:57","65.4","47.9","53.2","29.79","350","1","3.5","0.00","0.00"
"22:34:56","65.3","48.1","53.9","29.79","350","0.8","4.8","0.00","0.00"
"22:39:56","65.1","47.8","53.6","29.79","350","1.1","3.6","0.00","0.00"
"22:44:56","65","47.9","54","29.79","354","0.5","3.6","0.00","0.00"
"22:49:59","65","47.9","54","29.79","353","1.4","4.8","0.00","0.00"
"22:54:58","65","47.9","54","29.79","344","1.2","4.8","0.00","0.00"
"22:59:57","64.9","48.1","54.5","29.79","339","1","4.8","0.00","0.00"
"23:04:57","64.9","47.9","54","29.79","346","1.1","4.6","0.00","0.00"
"23:09:57","65","48","54.3","29.79","346","1.1","4.8","0.00","0.00"
"23:14:57","65","47.9","54","29.79","342","1.5","4.6","0.00","0.00"
"23:19:56","65","47.6","53.5","29.79","330","1.2","6","0.00","0.00"
"23:24:59","65","47.8","53.7","29.79","336","0.5","4.8","0.00","0.00"
"23:29:58","64.9","47.9","54.1","29.79","341","0.9","2.4","0.00","0.00"
"23:34:58","64.8","48","54.4","29.79","343","1.5","6","0.00","0.00"
"23:39:57","64.7","48.1","54.8","29.79","313","0.8","6","0.00","0.00"
"23:44:56","64.6","48","54.7","29.79","339","1.4","5.8","0.00","0.00"
"23:49:56","64.6","47.9","54.8","29.79","349","0.8","4.8","0.00","0.00"
